CW5917 Weather Reports


Display with metric or nautical units.
time (UTC)temp
F
wind
direction
speed
MPH
gust
MPH
rain 1hr
in
rain 24hr
in
rain mn
in
humidity
%
barometer
mb
20260505220542 57 271 11.0 18.0 0.00 0.00 0.00 34 1008.8
20260505220028 57 304 9.0 20.0 0.00 0.00 0.00 33 1008.7
20260505215522 58 302 10.0 20.0 0.00 0.00 0.00 33 1008.8
20260505215018 58 325 9.0 20.0 0.00 0.00 0.00 33 1008.8
20260505214527 58 312 8.0 21.0 0.00 0.00 0.00 34 1008.8
20260505214024 58 304 14.0 21.0 0.00 0.00 0.00 32 1008.6
20260505213521 58 323 8.0 17.0 0.00 0.00 0.00 34 1008.7
20260505213021 58 300 12.0 16.0 0.00 0.00 0.00 32 1008.7
20260505212532 58 294 7.0 14.0 0.00 0.00 0.00 37 1008.7
20260505212016 57 318 9.0 28.0 0.00 0.00 0.00 34 1008.8
20260505211526 57 298 14.0 28.0 0.00 0.00 0.00 34 1008.7
20260505211020 57 15 11.0 17.0 0.00 0.00 0.00 33 1008.7
20260505210523 58 318 9.0 17.0 0.00 0.00 0.00 34 1008.9
20260505210017 58 278 11.0 20.0 0.00 0.00 0.00 33 1008.9
20260505205531 58 283 12.0 20.0 0.00 0.00 0.00 33 1008.8
20260505205016 59 309 11.0 20.0 0.00 0.00 0.00 32 1008.8
20260505204526 58 319 5.0 20.0 0.00 0.00 0.00 36 1008.8
20260505204023 58 246 14.0 21.0 0.00 0.00 0.00 34 1008.9
20260505203538 58 259 10.0 18.0 0.00 0.00 0.00 32 1008.8
20260505203033 59 275 11.0 18.0 0.00 0.00 0.00 33 1009.0
20260505202525 58 255 10.0 18.0 0.00 0.00 0.00 36 1009.0
20260505202038 57 281 8.0 23.0 0.00 0.00 0.00 34 1009.1
20260505201518 57 265 11.0 23.0 0.00 0.00 0.00 35 1009.3
20260505201035 57 280 10.0 22.0 0.00 0.00 0.00 34 1009.4
20260505200520 56 240 3.0 18.0 0.00 0.00 0.00 33 1009.4
20260505200034 57 258 13.0 22.0 0.00 0.00 0.00 35 1009.5
20260505195550 57 281 14.0 24.0 0.00 0.00 0.00 32 1009.6
20260505195016 57 257 11.0 24.0 0.00 0.00 0.00 33 1009.6
20260505194521 58 300 11.0 20.0 0.00 0.00 0.00 32 1009.6
20260505194035 58 281 13.0 19.0 0.00 0.00 0.00 33 1009.6
20260505193519 58 315 9.0 18.0 0.00 0.00 0.00 33 1009.6
20260505193027 58 307 12.0 24.0 0.00 0.00 0.00 31 1009.6
20260505192545 58 335 11.0 24.0 0.00 0.00 0.00 35 1009.6
20260505192039 58 294 10.0 17.0 0.00 0.00 0.00 36 1009.6
20260505191520 58 309 12.0 18.0 0.00 0.00 0.00 31 1009.6
20260505191030 58 247 12.0 21.0 0.00 0.00 0.00 33 1009.6
20260505190539 57 300 14.0 21.0 0.00 0.00 0.00 32 1009.7
20260505190029 57 258 10.0 20.0 0.00 0.00 0.00 33 1009.7
20260505185521 57 259 11.0 20.0 0.00 0.00 0.00 34 1009.6
20260505185018 57 293 10.0 23.0 0.00 0.00 0.00 33 1009.6
20260505184533 57 310 16.0 23.0 0.00 0.00 0.00 33 1009.6
20260505184025 57 331 8.0 21.0 0.00 0.00 0.00 37 1009.7
20260505183521 56 267 12.0 21.0 0.00 0.00 0.00 36 1009.5
20260505183029 56 290 11.0 18.0 0.00 0.00 0.00 33 1009.4
20260505182529 56 322 9.0 18.0 0.00 0.00 0.00 35 1009.4
20260505182022 56 292 12.0 20.0 0.00 0.00 0.00 34 1009.2
20260505181516 56 292 14.0 20.0 0.00 0.00 0.00 33 1009.3
20260505181033 56 333 7.0 21.0 0.00 0.00 0.00 35 1009.2
20260505180539 56 305 13.0 21.0 0.00 0.00 0.00 36 1009.2
20260505180035 56 315 13.0 19.0 0.00 0.00 0.00 36 1009.1
20260505175528 56 258 10.0 19.0 0.00 0.00 0.00 35 1009.1
20260505175041 56 244 11.0 18.0 0.00 0.00 0.00 35 1009.2
20260505174517 56 322 11.0 23.0 0.00 0.00 0.00 34 1009.3
20260505174033 56 321 12.0 18.0 0.00 0.00 0.00 35 1009.3
20260505173518 56 255 10.0 22.0 0.00 0.00 0.00 34 1009.4
20260505173035 56 250 13.0 22.0 0.00 0.00 0.00 36 1009.3
20260505172523 55 274 14.0 20.0 0.00 0.00 0.00 37 1009.4
20260505172020 55 297 8.0 20.0 0.00 0.00 0.00 38 1009.3
20260505171519 55 249 13.0 21.0 0.00 0.00 0.00 39 1009.3
20260505171032 54 286 9.0 21.0 0.00 0.00 0.00 38 1009.6
20260505170517 54 240 13.0 23.0 0.00 0.00 0.00 38 1009.7
20260505170034 54 267 11.0 26.0 0.00 0.00 0.00 37 1009.5
20260505165523 54 311 10.0 22.0 0.00 0.00 0.00 39 1009.5
20260505165037 54 319 14.0 22.0 0.00 0.00 0.00 37 1009.7
20260505164525 54 269 11.0 23.0 0.00 0.00 0.00 37 1009.5
20260505164043 54 302 15.0 23.0 0.00 0.00 0.00 37 1009.3
20260505163534 54 250 10.0 25.0 0.00 0.00 0.00 37 1009.2
20260505163030 54 265 15.0 25.0 0.00 0.00 0.00 35 1009.3
20260505162517 54 309 13.0 23.0 0.00 0.00 0.00 34 1009.4
20260505162033 54 296 15.0 23.0 0.00 0.00 0.00 34 1009.3
20260505161522 54 304 11.0 20.0 0.00 0.00 0.00 36 1009.2
20260505161021 54 217 12.0 24.0 0.00 0.00 0.00 35 1009.5
20260505160516 54 302 10.0 17.0 0.00 0.00 0.00 34 1009.5
20260505153030 53 300 11.0 21.0 0.00 0.00 0.00 33 1009.4
20260505152537 53 299 13.0 20.0 0.00 0.00 0.00 32 1009.3
20260505152034 53 311 14.0 20.0 0.00 0.00 0.00 31 1009.2
20260505151524 53 290 11.0 21.0 0.00 0.00 0.00 33 1009.2
20260505151020 53 286 14.0 19.0 0.00 0.00 0.00 32 1009.2
20260505150525 53 319 11.0 20.0 0.00 0.00 0.00 32 1009.1
20260505140534 49 297 9.0 18.0 0.00 0.00 0.00 45 1009.6
20260505124527 45 239 5.0 10.0 0.00 0.00 0.00 57 1009.6
20260505124024 44 280 4.0 11.0 0.00 0.00 0.00 59 1009.7
20260505123537 44 250 6.0 10.0 0.00 0.00 0.00 58 1009.6
20260505123025 44 236 4.0 6.0 0.00 0.00 0.00 58 1009.5
20260505122534 44 250 4.0 6.0 0.00 0.00 0.00 58 1009.5
20260505122020 44 221 3.0 7.0 0.00 0.00 0.00 58 1009.6
20260505121529 44 213 6.0 7.0 0.00 0.00 0.00 58 1009.6
20260505121023 43 198 4.0 9.0 0.00 0.00 0.00 58 1009.4
20260505120535 43 218 6.0 9.0 0.00 0.00 0.00 57 1009.4
20260505120021 43 223 6.0 9.0 0.00 0.00 0.00 58 1009.4
20260505115536 43 232 5.0 9.0 0.00 0.00 0.00 58 1009.4
20260505115031 43 227 7.0 10.0 0.00 0.00 0.00 58 1009.3
20260505114539 43 237 6.0 9.0 0.00 0.00 0.00 58 1009.0
20260505114055 43 226 4.0 7.0 0.00 0.00 0.00 57 1008.6
20260505113536 43 240 5.0 7.0 0.00 0.00 0.00 57 1008.1
20260505113033 43 232 5.0 6.0 0.00 0.00 0.00 57 1008.1
20260505112537 43 250 3.0 4.0 0.00 0.00 0.00 57 1007.8
20260505112031 43 250 3.0 4.0 0.00 0.00 0.00 56 1007.8
20260505111519 43 250 1.0 2.0 0.00 0.00 0.00 55 1007.5
20260505111031 43 250 1.0 3.0 0.00 0.00 0.00 55 1007.3
20260505110521 43 250 2.0 4.0 0.00 0.00 0.00 55 1007.5
20260505102022 44 273 3.0 6.0 0.00 0.00 0.00 53 1007.8
20260505101538 44 268 3.0 6.0 0.00 0.00 0.00 53 1007.8
20260505101033 45 286 3.0 5.0 0.00 0.00 0.00 53 1007.6
20260505100556 45 288 3.0 5.0 0.00 0.00 0.00 52 1007.5
20260505100056 45 294 3.0 7.0 0.00 0.00 0.00 52 1007.6
20260505095529 45 298 4.0 6.0 0.00 0.00 0.00 52 1007.4
20260505095021 45 294 4.0 9.0 0.00 0.00 0.00 52 1007.3
20260505094532 45 314 5.0 9.0 0.00 0.00 0.00 52 1007.2
20260505094028 45 316 4.0 8.0 0.00 0.00 0.00 52 1007.1
20260505093542 46 315 5.0 8.0 0.00 0.00 0.00 52 1007.1
20260505093030 46 302 5.0 10.0 0.00 0.00 0.00 51 1007.1
20260505092520 46 323 6.0 10.0 0.00 0.00 0.00 51 1007.1
20260505092036 46 296 5.0 8.0 0.00 0.00 0.00 50 1007.2
20260505091535 46 301 5.0 8.0 0.00 0.00 0.00 50 1007.3
20260505091032 46 310 4.0 12.0 0.00 0.00 0.00 49 1007.0
20260505090526 46 299 6.0 12.0 0.00 0.00 0.00 49 1007.3
20260505090032 46 313 6.0 14.0 0.00 0.00 0.00 49 1007.3
20260505085524 46 302 8.0 15.0 0.00 0.00 0.00 48 1007.4
20260505085021 46 296 8.0 15.0 0.00 0.00 0.00 48 1007.4
20260505084548 46 310 7.0 14.0 0.00 0.00 0.00 48 1007.1
20260505084022 47 312 9.0 13.0 0.00 0.00 0.00 48 1006.9
20260505083518 47 279 5.0 9.0 0.00 0.00 0.00 49 1006.6
20260505083032 47 294 5.0 9.0 0.00 0.00 0.00 49 1006.4
20260505082521 47 308 6.0 10.0 0.00 0.00 0.00 48 1006.1
20260505082038 47 304 6.0 16.0 0.00 0.00 0.00 48 1006.1
20260505081527 47 312 8.0 16.0 0.00 0.00 0.00 47 1006.2
20260505081021 48 300 8.0 14.0 0.00 0.00 0.00 47 1006.1
20260505080518 48 327 7.0 14.0 0.00 0.00 0.00 47 1005.9
20260505080033 48 307 9.0 19.0 0.00 0.00 0.00 47 1005.9
20260505075558 48 270 10.0 20.0 0.00 0.00 0.00 47 1005.8
20260505075034 48 316 11.0 17.0 0.00 0.00 0.00 48 1005.7
20260505074534 48 320 11.0 18.0 0.00 0.00 0.00 47 1005.7
20260505074031 48 323 12.0 18.0 0.00 0.00 0.00 47 1005.6
20260505073536 49 306 11.0 18.0 0.00 0.00 0.00 47 1005.5
20260505073035 49 327 9.0 18.0 0.00 0.00 0.00 47 1005.1
20260505072520 49 325 10.0 17.0 0.00 0.00 0.00 47 1004.8
20260505072036 49 309 8.0 23.0 0.00 0.00 0.00 47 1004.7
20260505071522 49 323 11.0 21.0 0.00 0.00 0.00 48 1004.9
20260505071038 49 351 9.0 26.0 0.00 0.00 0.00 48 1004.8
20260505070519 49 9 10.0 17.0 0.00 0.00 0.00 48 1004.9
20260505070032 50 305 9.0 17.0 0.00 0.00 0.00 48 1004.9
20260505065545 50 360 9.0 16.0 0.00 0.00 0.00 49 1005.0
20260505065044 50 319 8.0 16.0 0.00 0.00 0.00 50 1004.9
20260505064531 50 355 6.0 15.0 0.00 0.00 0.00 49 1004.8
20260505064023 51 5 7.0 16.0 0.00 0.00 0.00 48 1004.5
20260505063519 51 342 10.0 16.0 0.00 0.00 0.00 48 1004.3
20260505063047 51 343 10.0 19.0 0.00 0.00 0.00 47 1004.3
20260505062542 51 317 13.0 19.0 0.00 0.00 0.00 47 1004.4
20260505062058 51 307 11.0 27.0 0.00 0.00 0.00 47 1004.4
20260505061528 52 326 12.0 27.0 0.00 0.00 0.00 48 1004.4
20260505061023 52 324 10.0 19.0 0.00 0.00 0.00 49 1004.0
20260505060518 52 340 11.0 19.0 0.00 0.00 0.00 49 1004.0
20260505060036 52 309 11.0 15.0 0.00 0.00 0.00 49 1003.9
20260505055546 53 338 9.0 15.0 0.00 0.00 0.00 49 1003.9
20260505055021 53 322 10.0 16.0 0.00 0.00 0.00 48 1003.8
20260505054553 53 296 9.0 15.0 0.00 0.00 0.00 48 1003.7
20260505054026 53 319 8.0 18.0 0.00 0.00 0.00 47 1003.7
20260505053522 53 300 9.0 18.0 0.00 0.00 0.00 47 1003.6
20260505053022 54 319 6.0 15.0 0.00 0.00 0.00 47 1003.7
20260505052528 54 303 9.0 15.0 0.00 0.00 0.00 46 1003.5
20260505052020 54 319 10.0 18.0 0.00 0.00 0.00 46 1003.6
20260505051518 54 299 11.0 18.0 0.00 0.00 0.00 45 1003.5
20260505051036 54 305 10.0 17.0 0.00 0.00 0.00 45 1003.4
20260505050525 54 323 10.0 15.0 0.00 0.00 0.00 45 1003.4
20260505041528 56 312 9.0 13.0 0.00 0.00 0.00 41 1002.7
20260505041021 56 296 8.0 13.0 0.00 0.00 0.00 41 1002.6
20260505040534 56 298 6.0 14.0 0.00 0.00 0.00 41 1002.6
20260505040033 56 317 8.0 14.0 0.00 0.00 0.00 40 1002.6
20260505035530 56 309 8.0 14.0 0.00 0.00 0.00 39 1002.6
20260505035049 57 309 6.0 9.0 0.00 0.00 0.00 39 1002.8
20260505034548 57 306 3.0 7.0 0.00 0.00 0.00 38 1002.7
20260505034033 57 277 3.0 7.0 0.00 0.00 0.00 38 1002.7
20260505033558 57 302 4.0 8.0 0.00 0.00 0.00 38 1002.7
20260505033036 57 269 4.0 10.0 0.00 0.00 0.00 37 1002.5
20260505032528 58 300 5.0 12.0 0.00 0.00 0.00 37 1002.5
20260505032039 58 287 7.0 13.0 0.00 0.00 0.00 37 1002.5
20260505031533 58 291 6.0 13.0 0.00 0.00 0.00 36 1002.5
20260505031020 58 269 6.0 16.0 0.00 0.00 0.00 36 1002.3
20260505030555 58 277 8.0 16.0 0.00 0.00 0.00 35 1002.2
20260505030023 59 293 8.0 14.0 0.00 0.00 0.00 35 1002.1
20260505025027 59 286 8.0 18.0 0.00 0.00 0.00 34 1002.1
20260505024523 59 282 10.0 20.0 0.00 0.00 0.00 34 1002.1
20260505024046 60 295 9.0 20.0 0.00 0.00 0.00 33 1001.9
20260505023523 60 248 10.0 20.0 0.00 0.00 0.00 33 1001.7
20260505023045 60 314 10.0 18.0 0.00 0.00 0.00 33 1001.7
20260505022559 60 279 10.0 18.0 0.00 0.00 0.00 32 1001.5
20260505022137 60 295 10.0 21.0 0.00 0.00 0.00 32 1001.3
20260505021529 61 309 11.0 21.0 0.00 0.00 0.00 31 1001.2
20260505021023 61 313 12.0 23.0 0.00 0.00 0.00 32 1000.9
20260505020538 61 306 13.0 23.0 0.00 0.00 0.00 32 1000.5
20260505020024 61 306 8.0 18.0 0.00 0.00 0.00 33 1000.4
20260505015519 62 254 9.0 18.0 0.00 0.00 0.00 33 1000.4
20260505015045 62 298 7.0 22.0 0.00 0.00 0.00 32 1000.4
20260505014527 62 306 13.0 22.0 0.00 0.00 0.00 32 1000.3
20260505014035 62 325 15.0 22.0 0.00 0.00 0.00 32 1000.3
20260505013533 63 319 14.0 23.0 0.00 0.00 0.00 32 1000.2
20260505013028 63 311 15.0 23.0 0.00 0.00 0.00 33 1000.1
20260505012524 64 309 17.0 23.0 0.00 0.00 0.00 33 999.9
20260505012031 64 302 12.0 25.0 0.00 0.00 0.00 33 1000.0
20260505011531 64 301 17.0 27.0 0.00 0.00 0.00 33 1000.0
20260505011025 65 296 20.0 27.0 0.00 0.00 0.00 32 1000.0
20260505010522 65 331 16.0 26.0 0.00 0.00 0.00 33 999.8
20260505010035 66 300 15.0 23.0 0.00 0.00 0.00 34 999.9
20260505005548 66 290 12.0 21.0 0.00 0.00 0.00 33 999.5
20260505005021 67 281 14.0 21.0 0.00 0.00 0.00 32 999.3
20260505004033 67 301 17.0 28.0 0.00 0.00 0.00 32 999.0
20260505003536 68 304 15.0 25.0 0.00 0.00 0.00 32 998.7
20260505003032 69 300 19.0 25.0 0.00 0.00 0.00 31 998.5
20260505002526 69 276 13.0 27.0 0.00 0.00 0.00 32 998.2
20260505002021 70 288 18.0 27.0 0.00 0.00 0.00 31 998.2
20260505001521 70 302 15.0 23.0 0.00 0.00 0.00 31 998.1
20260505001034 71 290 14.0 20.0 0.00 0.00 0.00 31 998.1
20260505000523 71 290 12.0 23.0 0.00 0.00 0.00 31 998.1
20260505000034 72 299 17.0 24.0 0.00 0.00 0.00 30 998.0
20260504235542 72 307 16.0 24.0 0.00 0.00 0.00 30 997.9
20260504235022 73 300 14.0 23.0 0.00 0.00 0.00 31 998.0
20260504234522 73 297 12.0 22.0 0.00 0.00 0.00 32 997.9
20260504234035 74 287 11.0 26.0 0.00 0.00 0.00 33 997.8
20260504233547 74 300 17.0 26.0 0.00 0.00 0.00 33 997.6
20260504233021 75 326 18.0 26.0 0.00 0.00 0.00 32 997.6
20260504232536 76 321 17.0 26.0 0.00 0.00 0.00 33 997.5
20260504232020 76 303 14.0 21.0 0.00 0.00 0.00 33 997.3
20260504231539 76 252 13.0 24.0 0.00 0.00 0.00 33 997.3
20260504231050 77 247 14.0 24.0 0.00 0.00 0.00 33 997.2
20260504230521 77 297 15.0 24.0 0.00 0.00 0.00 33 997.1
20260504230026 77 287 17.0 31.0 0.00 0.00 0.00 33 997.2
20260504225523 78 273 18.0 31.0 0.00 0.00 0.00 33 997.2
20260504225055 78 271 14.0 24.0 0.00 0.00 0.00 34 997.1
20260504224534 78 296 15.0 24.0 0.00 0.00 0.00 33 996.9
20260504224038 79 220 17.0 24.0 0.00 0.00 0.00 31 997.0
20260504223532 79 271 15.0 24.0 0.00 0.00 0.00 30 997.0
20260504223021 79 269 12.0 27.0 0.00 0.00 0.00 30 997.0
20260504222524 79 299 11.0 27.0 0.00 0.00 0.00 31 997.0
20260504222037 79 270 10.0 20.0 0.00 0.00 0.00 32 996.9
20260504221524 78 248 13.0 24.0 0.00 0.00 0.00 32 996.8
20260504221021 78 254 15.0 22.0 0.00 0.00 0.00 32 996.9